• In Hungary
  • List of Countries
  • For 7 days
  • Water Temperature
  • Satellite Maps
  • Weather Map
  • News
  • Weather Widgets
  • user-avatar
    Login

    Hourly Weather Kostenki

    Today, 16 October, Tuesday

    Time Temperature Precipitation Wind Pressure Humidity
    00:00 +13°C° 0 mm 1 mps 752 mmHg 80%
    01:00 +13°C° 0 mm 1 mps 752 mmHg 81%
    02:00 +13°C° 0 mm 1 mps 753 mmHg 82%
    03:00 +12°C° 0 mm 1 mps 753 mmHg 85%
    04:00 +12°C° 0 mm 1 mps 753 mmHg 85%
    05:00 +12°C° 0 mm 1 mps 753 mmHg 86%
    06:00 +12°C° 0 mm 1 mps 753 mmHg 86%
    07:00 +12°C° 0 mm 1 mps 753 mmHg 81%
    08:00 +13°C° 0 mm 1 mps 753 mmHg 77%
    09:00 +14°C° 0 mm 1 mps 753 mmHg 72%
    10:00 +16°C° 0 mm 1 mps 753 mmHg 65%
    11:00 +18°C° 0 mm 1 mps 753 mmHg 58%
    12:00 +19°C° 0 mm 2 mps 753 mmHg 51%
    13:00 +20°C° 0 mm 2 mps 753 mmHg 48%
    14:00 +20°C° 0 mm 2 mps 752 mmHg 45%
    15:00 +21°C° 0 mm 2 mps 752 mmHg 41%
    16:00 +20°C° 0 mm 1 mps 752 mmHg 46%
    17:00 +19°C° 0 mm 1 mps 752 mmHg 51%
    18:00 +16°C° 0 mm 1 mps 752 mmHg 55%
    19:00 +16°C° 0 mm 1 mps 752 mmHg 58%
    20:00 +15°C° 0 mm 1 mps 752 mmHg 60%
    21:00 +14°C° 0 mm 1 mps 751 mmHg 62%
    22:00 +14°C° 0 mm 1 mps 751 mmHg 63%
    23:00 +14°C° 0 mm 1 mps 751 mmHg 65%

    Tomorrow, 17 October, Wednesday

    Time Temperature Precipitation Wind Pressure Humidity
    00:00 +13°C° 0 mm 1 mps 751 mmHg 66%
    01:00 +13°C° 0 mm 1 mps 751 mmHg 67%
    02:00 +13°C° 0 mm 1 mps 751 mmHg 68%
    03:00 +12°C° 0 mm 1 mps 751 mmHg 70%
    04:00 +12°C° 0 mm 2 mps 751 mmHg 71%
    05:00 +12°C° 0 mm 2 mps 751 mmHg 72%
    06:00 +10°C° 0 mm 2 mps 751 mmHg 73%
    07:00 +12°C° 0 mm 2 mps 751 mmHg 70%
    08:00 +13°C° 0 mm 2 mps 751 mmHg 67%
    09:00 +14°C° 0 mm 2 mps 751 mmHg 64%
    10:00 +16°C° 0 mm 2 mps 751 mmHg 58%
    11:00 +18°C° 0 mm 2 mps 751 mmHg 53%
    12:00 +19°C° 0 mm 2 mps 751 mmHg 47%
    13:00 +20°C° 0 mm 2 mps 751 mmHg 45%
    14:00 +21°C° 0 mm 2 mps 751 mmHg 44%
    15:00 +21°C° 0 mm 3 mps 751 mmHg 43%
    16:00 +20°C° 0 mm 2 mps 751 mmHg 48%
    17:00 +18°C° 0 mm 2 mps 750 mmHg 54%
    18:00 +17°C° 0 mm 2 mps 750 mmHg 60%
    19:00 +16°C° 0 mm 2 mps 750 mmHg 63%
    20:00 +15°C° 0 mm 2 mps 751 mmHg 67%
    21:00 +15°C° 0 mm 2 mps 751 mmHg 71%
    22:00 +14°C° 0 mm 2 mps 751 mmHg 73%
    23:00 +13°C° 0 mm 2 mps 751 mmHg 75%

    Day after tomorrow, 18 October, Thursday

    Time Temperature Precipitation Wind Pressure Humidity
    00:00 +13°C° 0 mm 2 mps 751 mmHg 78%
    01:00 +12°C° 0 mm 1 mps 751 mmHg 79%
    02:00 +12°C° 0 mm 1 mps 751 mmHg 81%
    03:00 +11°C° 0 mm 1 mps 751 mmHg 82%
    04:00 +11°C° 0 mm 1 mps 751 mmHg 83%
    05:00 +11°C° 0 mm 1 mps 751 mmHg 84%
    06:00 +10°C° 0 mm 1 mps 751 mmHg 85%
    07:00 +11°C° 0 mm 1 mps 751 mmHg 80%
    08:00 +12°C° 0 mm 1 mps 751 mmHg 75%
    09:00 +13°C° 0 mm 1 mps 751 mmHg 71%
    10:00 +14°C° 0 mm 1 mps 751 mmHg 64%
    11:00 +16°C° 0 mm 1 mps 751 mmHg 57%
    12:00 +18°C° 0 mm 1 mps 751 mmHg 50%
    13:00 +19°C° 0 mm 1 mps 750 mmHg 47%
    14:00 +20°C° 0 mm 1 mps 750 mmHg 44%
    15:00 +20°C° 0 mm 1 mps 750 mmHg 42%
    16:00 +19°C° 0 mm 1 mps 750 mmHg 45%
    17:00 +16°C° 0 mm 1 mps 750 mmHg 49%
    18:00 +15°C° 0 mm 1 mps 749 mmHg 53%
    19:00 +15°C° 0 mm 1 mps 749 mmHg 55%
    20:00 +14°C° 0 mm 1 mps 749 mmHg 56%
    21:00 +13°C° 0 mm 1 mps 749 mmHg 58%
    22:00 +13°C° 0 mm 1 mps 749 mmHg 59%
    23:00 +13°C° 0 mm 2 mps 749 mmHg 60%

    19 October, Friday

    Time Temperature Precipitation Wind Pressure Humidity
    00:00 +12°C° 0 mm 2 mps 749 mmHg 61%
    01:00 +12°C° 0 mm 2 mps 749 mmHg 62%
    02:00 +12°C° 0 mm 2 mps 749 mmHg 63%
    03:00 +10°C° 0 mm 2 mps 749 mmHg 64%
    04:00 +10°C° 0 mm 2 mps 749 mmHg 66%
    05:00 +10°C° 0 mm 2 mps 748 mmHg 67%
    06:00 +9°C° 0 mm 2 mps 748 mmHg 69%
    07:00 +10°C° 0 mm 2 mps 748 mmHg 66%
    08:00 +12°C° 0 mm 2 mps 748 mmHg 63%
    09:00 +13°C° 0 mm 2 mps 748 mmHg 61%
    10:00 +14°C° 0 mm 3 mps 748 mmHg 55%
    11:00 +16°C° 0 mm 3 mps 748 mmHg 50%
    12:00 +18°C° 0 mm 3 mps 748 mmHg 45%
    13:00 +19°C° 0 mm 3 mps 747 mmHg 43%
    14:00 +19°C° 0 mm 3 mps 747 mmHg 42%
    15:00 +20°C° 0 mm 3 mps 747 mmHg 41%
    16:00 +18°C° 0 mm 3 mps 746 mmHg 46%
    17:00 +17°C° 0 mm 2 mps 746 mmHg 51%
    18:00 +15°C° 0 mm 2 mps 746 mmHg 55%
    19:00 +14°C° 0 mm 2 mps 746 mmHg 58%
    20:00 +14°C° 0 mm 2 mps 746 mmHg 60%
    21:00 +13°C° 0 mm 2 mps 746 mmHg 62%
    22:00 +13°C° 0 mm 2 mps 746 mmHg 63%
    23:00 +12°C° 0 mm 2 mps 745 mmHg 63%

    20 October, Saturday

    Time Temperature Precipitation Wind Pressure Humidity
    00:00 +12°C° 0 mm 2 mps 745 mmHg 64%
    01:00 +12°C° 0 mm 2 mps 745 mmHg 65%
    02:00 +10°C° 0 mm 2 mps 745 mmHg 66%
    03:00 +11°C° 0 mm 1 mps 745 mmHg 67%
    04:00 +11°C° 0 mm 1 mps 745 mmHg 69%
    05:00 +10°C° 0 mm 1 mps 744 mmHg 70%
    06:00 +10°C° 0 mm 1 mps 744 mmHg 71%
    07:00 +11°C° 0 mm 1 mps 744 mmHg 68%
    08:00 +12°C° 0 mm 1 mps 744 mmHg 66%
    09:00 +12°C° 0 mm 1 mps 744 mmHg 63%
    10:00 +14°C° 0 mm 1 mps 744 mmHg 59%
    11:00 +15°C° 0 mm 1 mps 744 mmHg 55%
    12:00 +16°C° 0 mm 2 mps 744 mmHg 51%
    13:00 +18°C° 0 mm 1 mps 743 mmHg 51%
    14:00 +18°C° 0 mm 1 mps 743 mmHg 51%
    15:00 +18°C° 0 mm 1 mps 743 mmHg 51%
    16:00 +16°C° 0 mm 1 mps 743 mmHg 54%
    17:00 +15°C° 0 mm 1 mps 743 mmHg 57%
    18:00 +15°C° 0 mm 1 mps 743 mmHg 61%
    19:00 +14°C° 0 mm 1 mps 743 mmHg 63%
    20:00 +14°C° 0 mm 1 mps 743 mmHg 65%
    21:00 +13°C° 0 mm 2 mps 742 mmHg 67%
    22:00 +13°C° 0 mm 2 mps 742 mmHg 69%
    23:00 +12°C° 0 mm 2 mps 742 mmHg 72%

    21 October, Sunday

    Time Temperature Precipitation Wind Pressure Humidity
    00:00 +12°C° 0 mm 2 mps 742 mmHg 74%
    01:00 +12°C° 0 mm 2 mps 742 mmHg 76%
    02:00 +12°C° 0 mm 2 mps 742 mmHg 78%
    03:00 +10°C° 0 mm 2 mps 742 mmHg 80%
    04:00 +10°C° 0 mm 2 mps 741 mmHg 81%
    05:00 +10°C° 0 mm 2 mps 741 mmHg 81%
    06:00 +10°C° 0 mm 2 mps 741 mmHg 82%
    07:00 +12°C° 0.1 mm 2 mps 741 mmHg 82%
    08:00 +12°C° 0.1 mm 2 mps 741 mmHg 81%
    09:00 +12°C° 0.1 mm 2 mps 741 mmHg 80%
    10:00 +13°C° 0.1 mm 2 mps 741 mmHg 79%
    11:00 +13°C° 0.1 mm 2 mps 741 mmHg 78%
    12:00 +14°C° 0.1 mm 2 mps 741 mmHg 77%
    13:00 +14°C° 0.1 mm 2 mps 741 mmHg 78%
    14:00 +14°C° 0.1 mm 2 mps 741 mmHg 78%
    15:00 +14°C° 0.1 mm 2 mps 741 mmHg 79%
    16:00 +13°C° 0 mm 2 mps 741 mmHg 81%
    17:00 +13°C° 0 mm 2 mps 741 mmHg 84%
    18:00 +11°C° 0 mm 3 mps 741 mmHg 86%
    19:00 +11°C° 0 mm 3 mps 741 mmHg 88%
    20:00 +10°C° 0 mm 2 mps 741 mmHg 90%
    21:00 +10°C° 0 mm 2 mps 741 mmHg 93%
    22:00 +10°C° 0 mm 3 mps 741 mmHg 93%
    23:00 +10°C° 0 mm 3 mps 741 mmHg 93%
    Show more